period_start,C,m1,H,J0,J1,J2,J3,J4,J5,JA,JB,JC,JD,JJ,JK,JN,#
2015-09-28 00:03:45,0.05,2.42,0.00,18.22,24.05,27.50,14.75,47.67,1011.73,2051.00,2718.07,2659.11,2815.91,599.66,602.55,42.89,0000 0000 0000 0000 000000
2015-09-28 00:08:46,0.02,2.42,0.00,18.22,24.05,27.52,14.73,47.67,1011.68,2051.00,2717.74,2658.99,2815.20,599.78,602.62,42.94,0000 0000 0000 0000 000000
2015-09-28 00:13:47,0.02,2.43,0.00,18.22,24.06,27.55,14.80,47.67,1011.55,2051.00,2717.05,2658.75,2815.00,600.09,602.89,42.99,0000 0000 0000 0000 000000
2015-09-28 00:18:48,0.04,2.43,0.00,18.22,24.07,27.54,14.75,47.62,1011.45,2051.00,2716.76,2658.05,2814.58,600.20,602.88,43.04,0000 0000 0000 0000 000000
2015-09-28 00:23:49,0.02,2.43,0.00,18.22,24.07,27.57,14.71,47.49,1011.38,2051.00,2716.07,2657.99,2814.04,599.79,602.37,43.09,0000 0000 0000 0000 000000
2015-09-28 00:28:51,0.03,2.43,0.00,18.23,24.07,27.57,14.76,47.58,1011.33,2051.00,2715.85,2657.46,2813.97,599.57,602.40,43.14,0000 0000 0000 0000 000000
2015-09-28 00:33:52,0.03,2.43,0.00,18.24,24.09,27.59,14.80,47.66,1011.27,2050.99,2715.16,2657.02,2813.44,600.00,602.58,43.20,0000 0000 0000 0000 000000
2015-09-28 00:38:53,0.01,2.43,0.00,18.25,24.10,27.59,14.85,47.63,1011.24,2050.99,2714.93,2656.97,2813.01,600.15,602.61,43.25,0000 0000 0000 0000 000000
2015-09-28 00:43:54,0.05,2.43,0.00,18.30,24.10,27.63,14.77,47.84,1010.95,2050.98,2714.19,2656.38,2812.87,599.79,602.16,43.30,0000 0000 0000 0000 000000
2015-09-28 00:48:56,0.02,2.44,0.00,18.57,24.11,27.35,14.75,47.66,1010.77,2050.97,2713.98,2656.01,2812.16,600.00,601.65,43.35,0000 0000 0000 0000 000000
2015-09-28 00:53:57,0.05,2.44,0.00,18.85,24.14,27.27,14.73,47.73,1010.76,2050.94,2713.40,2655.60,2811.79,599.91,600.91,43.40,0000 0000 0000 0000 000000
2015-09-28 00:58:58,-0.03,2.44,0.00,18.84,24.16,27.30,14.74,47.77,1010.74,2050.48,2712.75,2655.00,2811.05,599.48,600.54,43.45,0000 0000 0000 0000 000000
2015-09-28 01:03:59,0.03,2.44,0.00,18.87,24.19,27.33,14.75,47.64,1010.50,2050.11,2712.04,2654.42,2810.69,599.88,600.77,43.50,0000 0000 0000 0000 000000
2015-09-28 01:09:01,0.02,2.44,0.00,18.92,24.22,27.41,14.70,47.63,1010.29,2050.01,2711.47,2654.00,2810.04,599.99,600.50,43.55,0000 0000 0000 0000 000000
2015-09-28 01:14:02,0.02,2.44,0.00,18.98,24.25,27.49,14.76,47.86,1010.27,2050.00,2710.98,2653.70,2809.80,599.89,600.40,43.60,0000 0000 0000 0000 000000
2015-09-28 01:19:03,0.05,2.44,0.00,19.03,24.28,27.56,14.75,47.83,1010.24,2050.00,2710.22,2653.03,2809.06,599.80,600.17,43.65,0000 0000 0000 0000 000000
2015-09-28 01:24:05,0.02,2.44,0.00,19.09,24.31,27.62,14.79,47.73,1009.91,2050.00,2709.84,2652.83,2808.81,600.38,600.39,43.70,0000 0000 0000 0000 000000
2015-09-28 01:29:06,0.05,2.45,0.00,19.15,24.34,27.65,14.70,47.58,1009.80,2049.99,2709.04,2652.04,2808.03,600.05,599.82,43.75,0000 0000 0000 0000 000000
2015-09-28 01:34:08,0.04,2.45,0.00,19.21,24.37,27.68,14.79,47.58,1009.78,2049.95,2708.46,2651.74,2807.60,600.37,600.09,43.80,0000 0000 0000 0000 000000
2015-09-28 01:39:09,-0.02,2.45,0.00,19.27,24.41,27.71,14.75,47.75,1009.78,2049.61,2707.98,2651.04,2807.02,600.28,599.81,43.85,0000 0000 0000 0000 000000
2015-09-28 01:44:09,0.01,2.45,0.00,19.33,24.44,27.77,14.62,47.59,1009.78,2049.16,2707.34,2650.79,2806.57,599.77,599.30,43.90,0000 0000 0000 0000 000000
2015-09-28 01:49:10,0.03,2.45,0.00,19.38,24.48,27.83,14.69,47.67,1009.78,2049.02,2706.67,2650.05,2805.99,600.02,599.46,43.95,0000 0000 0000 0000 000000
2015-09-28 01:54:12,0.04,2.45,0.00,19.44,24.51,27.85,14.62,47.63,1009.78,2049.00,2706.01,2649.76,2805.24,599.74,598.93,44.00,0000 0000 0000 0000 000000
2015-09-28 01:59:13,0.03,2.45,0.00,19.50,24.55,27.92,14.63,47.63,1009.84,2049.00,2705.40,2649.06,2804.99,600.06,599.24,44.05,0000 0000 0000 0000 000000
2015-09-28 02:04:14,0.02,2.46,0.00,19.58,24.59,27.96,14.60,47.61,1010.14,2048.98,2704.99,2648.91,2804.33,599.74,598.91,44.10,0000 0000 0000 0000 000000
2015-09-28 02:09:15,0.04,2.46,0.00,19.62,24.63,28.00,14.66,47.60,1010.28,2048.96,2704.19,2648.14,2803.97,600.23,599.32,44.15,0000 0000 0000 0000 000000
2015-09-28 02:14:16,-0.02,2.46,0.00,19.66,24.67,28.06,14.75,47.65,1010.47,2048.54,2703.65,2647.86,2803.17,600.29,599.50,44.20,0000 0000 0000 0000 000000
2015-09-28 02:19:18,0.02,2.46,0.00,19.71,24.72,28.11,14.62,47.47,1010.73,2048.16,2702.98,2647.12,2802.83,599.83,599.10,44.26,0000 0000 0000 0000 000000
2015-09-28 02:24:19,0.04,2.46,0.00,19.77,24.76,28.14,14.70,47.66,1010.76,2048.02,2702.25,2646.69,2802.09,600.20,599.29,44.31,0000 0000 0000 0000 000000
2015-09-28 02:29:20,0.04,2.46,0.00,19.82,24.80,28.18,14.70,47.49,1010.76,2047.99,2701.56,2646.02,2801.50,600.12,599.10,44.36,0000 0000 0000 0000 000000
2015-09-28 02:34:21,0.03,2.46,0.00,19.88,24.85,28.23,14.70,47.47,1010.76,2047.97,2701.00,2645.57,2801.01,599.85,598.80,44.41,0000 0000 0000 0000 000000
2015-09-28 02:39:23,0.01,2.47,0.00,19.95,24.89,28.27,14.73,47.55,1010.76,2047.81,2700.45,2645.01,2800.44,600.18,598.95,44.46,0000 0000 0000 0000 000000
2015-09-28 02:44:24,-0.02,2.47,0.00,20.01,24.94,28.28,14.61,47.60,1010.76,2047.14,2699.80,2644.33,2799.92,599.80,598.45,44.51,0000 0000 0000 0000 000000
2015-09-28 02:49:25,0.03,2.47,0.00,20.07,24.98,28.33,14.68,47.48,1010.75,2047.01,2699.01,2643.92,2799.09,599.92,598.43,44.56,0000 0000 0000 0000 000000
2015-09-28 02:54:27,0.06,2.47,0.00,20.13,25.03,28.41,14.57,47.42,1010.61,2047.00,2698.22,2643.08,2798.37,599.98,598.30,44.61,0000 0000 0000 0000 000000
2015-09-28 02:59:28,0.04,2.47,0.00,20.19,25.08,28.45,14.57,47.54,1010.54,2047.00,2697.69,2642.63,2797.89,599.81,597.88,44.66,0000 0000 0000 0000 000000
2015-09-28 03:04:30,0.03,2.47,0.00,20.25,25.13,28.50,14.56,47.55,1010.73,2047.00,2696.96,2642.00,2797.09,599.98,598.12,44.71,0000 0000 0000 0000 000000
2015-09-28 03:09:31,0.05,2.48,0.00,20.31,25.18,28.55,14.60,47.63,1010.71,2046.94,2696.11,2641.35,2796.52,599.93,597.92,44.76,0000 0000 0000 0000 000000
2015-09-28 03:14:32,-0.03,2.48,0.00,20.36,25.23,28.58,14.63,47.37,1010.69,2046.45,2695.44,2640.85,2795.89,600.06,597.94,44.81,0000 0000 0000 0000 000000
2015-09-28 03:19:33,0.03,2.48,0.00,20.43,25.28,28.65,14.70,47.55,1010.65,2046.04,2694.81,2640.05,2795.06,600.14,597.86,44.86,0000 0000 0000 0000 000000
2015-09-28 03:24:34,0.06,2.48,0.00,20.50,25.34,28.68,14.54,47.31,1010.41,2046.00,2694.03,2639.34,2794.29,599.65,597.02,44.91,0000 0000 0000 0000 000000
2015-09-28 03:29:35,0.03,2.48,0.00,20.58,25.39,28.76,14.69,47.49,1010.31,2045.99,2693.25,2638.91,2793.74,600.28,597.54,44.96,0000 0000 0000 0000 000000
2015-09-28 03:34:37,0.05,2.49,0.00,20.64,25.45,28.79,14.58,47.38,1010.29,2045.74,2692.39,2637.74,2792.64,600.03,597.17,45.01,0000 0000 0000 0000 000000
2015-09-28 03:39:38,-0.01,2.49,0.00,20.72,25.50,28.84,14.52,47.37,1010.28,2045.07,2691.21,2636.98,2791.82,599.71,596.64,45.06,0000 0000 0000 0000 000000
2015-09-28 03:44:39,0.06,2.49,0.00,20.77,25.56,28.89,14.50,47.34,1010.27,2045.00,2690.43,2636.15,2791.01,599.56,596.41,45.11,0000 0000 0000 0000 000000
2015-09-28 03:49:41,0.06,2.49,0.00,20.82,25.62,28.95,14.58,47.39,1010.27,2044.99,2689.62,2635.55,2790.16,600.03,596.65,45.17,0000 0000 0000 0000 000000
2015-09-28 03:54:41,0.01,2.49,0.00,20.88,25.67,29.02,14.63,47.43,1010.27,2044.83,2688.84,2634.90,2789.36,600.06,596.66,45.22,0000 0000 0000 0000 000000
2015-09-28 03:59:43,0.00,2.49,0.00,20.93,25.73,29.04,14.60,47.44,1010.19,2044.35,2688.05,2634.09,2788.74,599.99,596.43,45.27,0000 0000 0000 0000 000000
2015-09-28 04:04:44,0.04,2.49,0.00,20.99,25.79,29.11,14.65,47.45,1009.97,2044.02,2687.20,2633.44,2787.98,600.30,596.47,45.32,0000 0000 0000 0000 000000
2015-09-28 04:09:45,0.04,2.50,0.00,21.04,25.84,29.16,14.61,47.48,1009.90,2044.00,2686.65,2632.89,2787.14,600.46,596.40,45.37,0000 0000 0000 0000 000000
2015-09-28 04:14:47,0.04,2.50,0.00,21.08,25.90,29.23,14.54,47.28,1009.80,2043.96,2686.00,2632.10,2786.62,599.98,595.87,45.42,0000 0000 0000 0000 000000
2015-09-28 04:19:48,-0.01,2.50,0.00,21.13,25.95,29.29,14.48,47.29,1009.79,2043.64,2685.25,2631.70,2785.99,599.62,595.42,45.47,0000 0000 0000 0000 000000
2015-09-28 04:24:48,0.01,2.50,0.00,21.17,26.01,29.35,14.56,47.14,1009.79,2043.11,2684.60,2631.03,2785.22,600.10,595.74,45.52,0000 0000 0000 0000 000000
2015-09-28 04:29:49,0.04,2.50,0.00,21.23,26.07,29.40,14.53,47.31,1009.78,2043.01,2684.00,2630.39,2784.69,599.74,595.42,45.57,0000 0000 0000 0000 000000
2015-09-28 04:34:51,0.03,2.50,0.00,21.28,26.12,29.44,14.56,47.17,1009.78,2043.00,2683.29,2629.98,2784.02,599.91,595.41,45.62,0000 0000 0000 0000 000000
2015-09-28 04:39:52,0.04,2.51,0.00,21.34,26.17,29.51,14.53,47.23,1009.78,2042.82,2682.69,2629.20,2783.44,599.78,595.10,45.67,0000 0000 0000 0000 000000
2015-09-28 04:44:53,-0.01,2.50,0.00,21.39,26.23,29.57,14.52,47.28,1009.78,2042.16,2681.91,2628.62,2782.65,599.58,594.78,45.72,0000 0000 0000 0000 000000
2015-09-28 04:49:54,0.02,2.51,0.00,21.44,26.28,29.60,14.60,47.17,1009.72,2042.01,2681.11,2628.00,2781.99,600.34,595.40,45.77,0000 0000 0000 0000 000000
2015-09-28 04:54:55,0.06,2.51,0.00,21.48,26.34,29.64,14.48,47.18,1009.34,2041.98,2680.49,2627.28,2781.20,599.65,594.39,45.82,0000 0000 0000 0000 000000
2015-09-28 04:59:57,0.01,2.51,0.00,21.53,26.39,29.70,14.52,47.33,1009.32,2041.94,2679.99,2626.91,2780.75,599.71,594.51,45.87,0000 0000 0000 0000 000000
2015-09-28 05:04:58,0.00,2.51,0.00,21.61,26.44,29.67,14.62,47.26,1009.36,2041.52,2679.23,2626.12,2780.03,600.14,594.61,45.92,0000 0000 0000 0000 000000
2015-09-28 05:09:59,0.03,2.51,0.00,21.97,26.50,29.61,14.51,47.19,1009.54,2041.04,2678.63,2625.58,2779.42,600.21,594.08,45.97,0000 0000 0000 0000 000000
2015-09-28 05:15:00,0.02,2.51,0.00,22.13,26.57,29.64,14.41,47.11,1009.68,2041.00,2677.98,2624.98,2778.79,599.67,593.46,46.02,0000 0000 0000 0000 000000
2015-09-28 05:20:01,0.04,2.52,0.00,22.02,26.62,29.76,14.52,47.27,1009.72,2040.81,2677.15,2624.14,2777.96,600.28,594.34,46.08,0000 0000 0000 0000 000000
2015-09-28 05:25:02,-0.01,2.51,0.00,21.97,26.68,29.86,14.51,47.13,1009.67,2040.12,2676.37,2623.64,2777.12,600.34,594.32,46.13,0000 0000 0000 0000 000000
2015-09-28 05:30:03,0.03,2.52,0.00,21.95,26.73,29.94,14.47,47.22,1009.55,2040.03,2675.75,2623.03,2776.60,599.83,593.85,46.18,0000 0000 0000 0000 000000
2015-09-28 05:35:04,0.04,2.52,0.00,21.96,26.78,30.00,14.50,47.27,1009.41,2040.00,2675.03,2622.66,2776.01,599.89,593.75,46.23,0000 0000 0000 0000 000000
2015-09-28 05:40:06,0.03,2.52,0.00,22.12,26.83,29.94,14.62,47.27,1009.31,2039.99,2674.65,2622.02,2775.49,600.33,593.77,46.28,0000 0000 0000 0000 000000
2015-09-28 05:45:07,0.02,2.52,0.00,22.40,26.89,29.92,14.41,47.12,1009.31,2039.82,2673.99,2621.50,2774.88,599.99,592.95,46.33,0000 0000 0000 0000 000000
2015-09-28 05:50:08,-0.02,2.52,0.00,22.33,26.95,30.04,14.39,46.98,1009.30,2039.13,2673.12,2620.97,2774.06,599.63,592.62,46.38,0000 0000 0000 0000 000000
2015-09-28 05:55:09,0.06,2.52,0.00,22.25,27.00,30.11,14.52,47.16,1009.29,2039.00,2672.57,2620.23,2773.53,599.88,593.08,46.43,0000 0000 0000 0000 000000
2015-09-28 06:00:10,0.01,2.53,0.00,22.21,27.05,30.16,14.50,47.13,1009.29,2038.98,2671.99,2619.85,2772.97,600.11,593.58,46.48,0000 0000 0000 0000 000000
2015-09-28 06:05:12,0.04,2.53,0.00,22.41,27.09,30.09,14.47,47.08,1009.27,2038.77,2671.21,2619.07,2772.18,600.43,593.34,46.53,0000 0000 0000 0000 000000
2015-09-28 06:10:13,-0.04,2.53,0.00,22.57,27.15,30.15,14.47,47.01,1009.14,2038.15,2670.87,2618.77,2771.85,600.06,592.52,46.58,0000 0000 0000 0000 000000
2015-09-28 06:15:14,0.05,2.53,0.00,22.48,27.20,30.22,14.45,47.13,1008.98,2038.01,2670.07,2618.03,2771.05,600.12,592.69,46.63,0000 0000 0000 0000 000000
2015-09-28 06:20:16,0.06,2.53,0.00,22.53,27.24,30.21,14.52,47.07,1009.09,2037.99,2669.30,2617.42,2770.44,599.88,592.34,46.68,0000 0000 0000 0000 000000
2015-09-28 06:25:17,0.01,2.53,0.00,22.65,27.29,30.26,14.47,47.16,1008.90,2037.91,2668.74,2616.98,2769.95,600.03,592.25,46.73,0000 0000 0000 0000 000000
2015-09-28 06:30:18,-0.01,2.53,0.00,22.58,27.33,30.29,14.44,47.06,1008.88,2037.30,2668.02,2616.21,2769.13,599.74,592.08,46.78,0000 0000 0000 0000 000000
2015-09-28 06:35:19,0.03,2.53,0.00,22.75,27.37,30.30,14.49,46.97,1008.92,2037.05,2667.26,2615.84,2768.67,600.07,592.10,46.83,0000 0000 0000 0000 000000
2015-09-28 06:40:20,0.04,2.53,0.00,22.72,27.41,30.39,14.43,46.91,1009.07,2037.00,2666.82,2615.10,2768.01,600.27,592.46,46.88,0000 0000 0000 0000 000000
2015-09-28 06:45:22,0.04,2.54,0.00,22.71,27.45,30.37,14.37,46.92,1009.00,2037.00,2666.05,2614.82,2767.46,599.45,591.61,46.93,0000 0000 0000 0000 000000
2015-09-28 06:50:23,0.04,2.54,0.00,22.85,27.49,30.41,14.48,46.99,1009.00,2036.95,2665.35,2614.06,2766.94,600.35,592.22,46.98,0000 0000 0000 0000 000000
2015-09-28 06:55:24,0.01,2.54,0.00,22.77,27.52,30.46,14.42,46.99,1008.90,2036.66,2664.89,2613.75,2766.13,599.75,591.68,47.03,0000 0000 0000 0000 000000
2015-09-28 07:00:26,-0.00,2.54,0.00,22.90,27.56,30.44,14.44,47.13,1008.86,2036.26,2664.09,2613.06,2765.88,599.93,591.65,47.09,0000 0000 0000 0000 000000
2015-09-28 07:05:27,0.04,2.54,0.00,23.01,27.59,30.51,14.38,46.98,1008.81,2036.02,2663.55,2612.64,2765.10,599.71,591.16,47.14,0000 0000 0000 0000 000000
2015-09-28 07:10:28,0.03,2.54,0.00,22.94,27.63,30.54,14.36,47.04,1008.80,2036.00,2662.97,2612.03,2764.67,599.67,591.26,47.19,0000 0000 0000 0000 000000
2015-09-28 07:15:29,0.05,2.54,0.00,23.07,27.66,30.53,14.41,46.92,1008.80,2035.99,2662.19,2611.59,2764.02,600.02,591.43,47.24,0000 0000 0000 0000 000000
2015-09-28 07:20:31,0.03,2.55,0.00,23.04,27.69,30.56,14.31,46.90,1008.80,2035.95,2661.75,2611.01,2763.58,599.57,590.92,47.29,0000 0000 0000 0000 000000
2015-09-28 07:25:32,0.02,2.55,0.00,23.04,27.72,30.57,14.44,46.95,1008.79,2035.88,2661.04,2610.75,2763.02,599.91,591.27,47.34,0000 0000 0000 0000 000000
2015-09-28 07:30:33,-0.01,2.55,0.00,23.17,27.75,30.59,14.53,47.01,1008.63,2035.37,2660.53,2610.03,2762.50,600.46,591.50,47.39,0000 0000 0000 0000 000000
2015-09-28 07:35:34,0.01,2.55,0.00,23.09,27.77,30.63,14.47,47.00,1008.38,2035.12,2659.93,2609.72,2762.00,599.96,591.00,47.44,0000 0000 0000 0000 000000
2015-09-28 07:40:36,0.04,2.55,0.00,23.08,27.80,30.62,14.42,46.88,1008.33,2035.01,2659.14,2609.03,2761.42,599.70,590.80,47.49,0000 0000 0000 0000 000000
2015-09-28 07:45:38,0.03,2.55,0.00,23.14,27.82,30.66,14.44,46.73,1008.32,2035.01,2658.65,2608.77,2760.98,599.98,590.88,47.54,0000 0000 0000 0000 000000
2015-09-28 07:50:39,0.04,2.55,0.00,23.14,27.84,30.64,14.53,46.79,1008.32,2035.00,2657.99,2608.05,2760.27,600.40,591.28,47.59,0000 0000 0000 0000 000000
2015-09-28 07:55:40,0.03,2.56,0.00,23.19,27.86,30.66,14.34,46.87,1008.32,2035.00,2657.17,2607.76,2759.97,599.88,590.74,47.64,0000 0000 0000 0000 000000
2015-09-28 08:00:41,0.05,2.56,0.00,23.21,27.87,30.67,14.40,46.67,1008.32,2034.99,2656.64,2607.04,2759.18,600.08,590.72,47.69,0000 0000 0000 0000 000000
2015-09-28 08:05:42,0.02,2.56,0.00,23.25,27.90,30.70,14.39,46.83,1008.32,2034.98,2656.00,2606.81,2758.89,599.59,590.28,47.74,0000 0000 0000 0000 000000
2015-09-28 08:10:44,0.05,2.56,0.00,23.28,27.91,30.68,14.47,46.80,1008.30,2034.97,2655.34,2606.09,2758.12,600.59,591.15,47.79,0000 0000 0000 0000 000000
2015-09-28 08:15:45,0.04,2.56,0.00,23.31,27.92,30.69,14.33,46.91,1008.31,2034.92,2654.51,2605.72,2757.66,599.46,590.02,47.84,0000 0000 0000 0000 000000
2015-09-28 08:20:46,0.04,2.57,0.00,23.35,27.93,30.71,14.37,46.88,1008.31,2034.90,2653.70,2605.04,2757.01,599.60,590.16,47.89,0000 0000 0000 0000 000000
2015-09-28 08:25:47,0.05,2.57,0.00,23.37,27.95,30.75,14.46,46.84,1008.31,2034.81,2652.87,2604.60,2756.32,600.39,590.81,47.94,0000 0000 0000 0000 000000
2015-09-28 08:30:48,0.03,2.57,0.00,23.39,27.95,30.73,14.34,46.78,1008.29,2034.82,2652.06,2604.03,2755.99,599.75,590.25,48.00,0000 0000 0000 0000 000000
2015-09-28 08:35:50,0.06,2.57,0.00,23.32,27.95,30.73,14.43,46.67,1008.24,2034.80,2651.43,2603.69,2755.31,600.29,590.69,48.05,0000 0000 0000 0000 000000
2015-09-28 08:40:51,-0.02,2.57,0.00,23.39,27.97,30.75,14.44,46.79,1008.23,2034.48,2650.77,2603.04,2754.93,599.77,590.12,48.10,0000 0000 0000 0000 000000
2015-09-28 08:45:52,0.04,2.58,0.00,23.32,27.97,30.78,14.33,46.73,1008.25,2034.46,2650.02,2602.90,2754.15,600.14,590.63,48.15,0000 0000 0000 0000 000000
2015-09-28 08:50:53,0.03,2.58,0.00,23.39,27.97,30.77,14.40,46.78,1008.27,2034.37,2649.27,2602.18,2753.93,600.06,590.42,48.20,0000 0000 0000 0000 000000
2015-09-28 08:55:54,0.03,2.58,0.00,23.33,27.98,30.79,14.34,46.78,1008.27,2034.38,2648.74,2601.95,2753.15,599.88,590.32,48.25,0000 0000 0000 0000 000000
2015-09-28 09:00:55,0.03,2.58,0.00,23.38,28.00,30.78,14.37,46.85,1008.29,2034.19,2648.02,2601.17,2752.88,599.79,590.22,48.30,0000 0000 0000 0000 000000
2015-09-28 09:05:56,0.04,2.58,0.00,23.36,28.00,30.81,14.37,46.78,1008.26,2034.22,2647.45,2601.00,2752.15,600.20,590.64,48.35,0000 0000 0000 0000 000000
2015-09-28 09:10:58,0.02,2.59,0.00,23.40,28.00,30.82,14.36,46.94,1008.15,2034.15,2646.92,2600.51,2751.97,599.98,590.28,48.40,0000 0000 0000 0000 000000
2015-09-28 09:15:58,0.05,2.59,0.00,23.30,28.00,30.81,14.37,46.92,1008.20,2034.12,2646.10,2600.02,2751.34,599.88,590.34,48.45,0000 0000 0000 0000 000000
2015-09-28 09:21:00,0.03,2.59,0.00,23.40,28.02,30.82,14.34,46.78,1008.20,2034.08,2645.56,2599.70,2751.00,599.95,590.35,48.50,0000 0000 0000 0000 000000
2015-09-28 09:26:01,0.02,2.59,0.00,23.37,28.02,30.82,14.37,46.80,1008.04,2034.06,2645.01,2599.04,2750.66,599.69,590.13,48.55,0000 0000 0000 0000 000000
2015-09-28 09:31:02,0.02,2.59,0.00,23.43,28.02,30.84,14.42,46.88,1007.94,2034.03,2644.49,2598.94,2750.03,600.45,590.54,48.60,0000 0000 0000 0000 000000
2015-09-28 09:36:03,0.04,2.59,0.00,23.44,28.03,30.85,14.31,46.73,1007.86,2034.02,2643.98,2598.19,2749.75,599.54,589.56,48.65,0000 0000 0000 0000 000000
2015-09-28 09:41:05,0.03,2.60,0.00,23.44,28.04,30.86,14.38,46.78,1007.84,2034.02,2643.26,2597.99,2749.10,600.16,590.19,48.70,0000 0000 0000 0000 000000
2015-09-28 09:46:06,0.03,2.60,0.00,23.49,28.05,30.84,14.36,46.70,1007.84,2034.00,2642.82,2597.53,2748.95,599.76,589.73,48.75,0000 0000 0000 0000 000000
2015-09-28 09:51:07,0.04,2.60,0.00,23.42,28.05,30.87,14.40,46.88,1007.85,2034.01,2642.05,2597.03,2748.24,599.92,589.98,48.80,0000 0000 0000 0000 000000
2015-09-28 09:56:08,0.01,2.60,0.00,23.47,28.05,30.85,14.39,46.80,1007.88,2034.00,2641.69,2596.97,2748.00,600.07,590.05,48.85,0000 0000 0000 0000 000000
2015-09-28 10:01:09,0.04,2.60,0.00,23.49,28.05,30.88,14.35,46.88,1007.90,2034.00,2641.03,2596.41,2747.73,599.98,589.93,48.90,0000 0000 0000 0000 000000
2015-09-28 10:06:10,0.01,2.60,0.00,23.45,28.05,30.85,14.44,46.98,1007.87,2034.00,2640.92,2596.01,2747.08,600.22,590.20,48.95,0000 0000 0000 0000 000000
2015-09-28 10:11:11,0.02,2.61,0.00,23.46,28.06,30.87,14.40,46.95,1007.87,2034.00,2640.15,2595.99,2746.99,600.09,590.07,49.00,0000 0000 0000 0000 000000
2015-09-28 10:16:13,0.05,2.61,0.00,23.53,28.07,30.85,14.44,46.77,1007.88,2034.00,2639.83,2595.45,2746.51,600.25,590.11,49.06,0000 0000 0000 0000 000000
2015-09-28 10:21:13,0.02,2.61,0.00,23.46,28.07,30.88,14.43,46.88,1007.89,2034.00,2639.06,2595.01,2746.01,600.15,590.19,49.11,0000 0000 0000 0000 000000
2015-09-28 10:26:15,0.03,2.61,0.00,23.50,28.07,30.85,14.44,46.89,1007.92,2033.99,2638.71,2594.78,2745.68,600.31,590.25,49.16,0000 0000 0000 0000 000000
2015-09-28 10:31:16,0.05,2.61,0.00,23.52,28.07,30.88,14.35,46.91,1007.93,2033.98,2637.84,2594.05,2745.02,599.81,589.69,49.21,0000 0000 0000 0000 000000
2015-09-28 10:36:17,0.05,2.62,0.00,23.52,28.08,30.87,14.32,46.85,1008.08,2033.99,2636.90,2593.77,2744.44,599.72,589.72,49.26,0000 0000 0000 0000 000000
2015-09-28 10:41:18,0.05,2.62,0.00,23.54,28.08,30.87,14.40,46.83,1008.28,2033.99,2635.79,2593.03,2743.90,599.85,589.93,49.31,0000 0000 0000 0000 000000
2015-09-28 10:46:19,0.08,2.62,0.00,23.53,28.10,30.87,14.37,46.97,1008.31,2033.99,2634.52,2592.34,2743.03,599.77,590.01,49.36,0000 0000 0000 0000 000000
2015-09-28 10:51:21,0.06,2.63,0.00,23.62,28.10,30.88,14.34,46.83,1008.31,2033.99,2633.18,2591.70,2742.17,600.00,590.06,49.41,0000 0000 0000 0000 000000
2015-09-28 10:56:22,0.05,2.63,0.00,23.54,28.10,30.90,14.36,46.90,1008.31,2033.99,2632.11,2591.02,2741.75,600.25,590.31,49.46,0000 0000 0000 0000 000000
2015-09-28 11:01:23,0.04,2.63,0.00,23.49,28.10,30.87,14.38,46.94,1008.31,2033.98,2631.36,2590.71,2741.04,600.21,590.40,49.51,0000 0000 0000 0000 000000
2015-09-28 11:06:24,0.03,2.63,0.00,23.55,28.10,30.89,14.37,46.96,1008.30,2033.97,2630.88,2590.04,2740.83,599.89,589.88,49.56,0000 0000 0000 0000 000000
2015-09-28 11:11:26,0.03,2.64,0.00,23.45,28.10,30.89,14.43,47.20,1008.19,2033.98,2630.05,2589.98,2740.10,600.07,590.26,49.61,0000 0000 0000 0000 000000
2015-09-28 11:16:27,0.09,2.64,0.00,23.49,28.10,30.88,14.38,47.06,1007.91,2033.99,2628.78,2589.13,2739.51,599.88,589.87,49.66,0000 0000 0000 0000 000000
2015-09-28 11:21:28,0.08,2.64,0.00,23.43,28.10,30.90,14.40,47.03,1007.87,2033.98,2627.13,2588.17,2738.43,600.07,590.13,49.71,0000 0000 0000 0000 000000
2015-09-28 11:26:29,0.08,2.65,0.00,23.52,28.10,30.89,14.30,46.98,1007.86,2033.98,2625.69,2587.47,2737.68,599.59,589.70,49.76,0000 0000 0000 0000 000000
2015-09-28 11:31:30,0.04,2.65,0.00,23.51,28.10,30.88,14.38,46.93,1007.91,2033.98,2624.42,2586.88,2736.98,600.29,590.04,49.81,0000 0000 0000 0000 000000
2015-09-28 11:36:32,0.06,2.65,0.00,23.49,28.11,30.90,14.32,46.99,1008.15,2033.95,2623.27,2586.09,2736.17,599.84,589.93,49.86,0000 0000 0000 0000 000000
2015-09-28 11:41:33,0.07,2.66,0.00,23.52,28.12,30.89,14.40,47.02,1008.31,2033.94,2622.04,2585.30,2735.33,599.90,590.02,49.91,0000 0000 0000 0000 000000
2015-09-28 11:46:34,0.07,2.66,0.00,23.36,28.11,30.90,14.49,46.99,1008.31,2033.88,2620.67,2584.68,2734.52,600.39,590.83,49.96,0000 0000 0000 0000 000000
2015-09-28 11:51:35,0.09,2.67,0.00,23.41,28.10,30.90,14.36,47.01,1008.32,2033.93,2618.91,2583.77,2733.54,599.63,589.98,50.01,0000 0000 0000 0000 000000
2015-09-28 11:56:36,0.10,2.67,0.00,23.40,28.10,30.93,14.41,47.11,1008.32,2033.88,2617.14,2582.76,2732.44,599.79,590.15,50.07,0000 0000 0000 0000 000000
2015-09-28 12:01:37,0.07,2.67,0.00,23.40,28.10,30.90,14.42,47.16,1008.32,2033.81,2615.38,2581.82,2731.47,600.04,590.41,50.12,0000 0000 0000 0000 000000
2015-09-28 12:06:39,0.08,2.68,0.00,23.46,28.11,30.90,14.41,46.97,1008.32,2033.72,2613.66,2580.95,2730.39,600.22,590.47,50.17,0000 0000 0000 0000 000000
2015-09-28 12:11:40,0.08,2.68,0.00,23.49,28.12,30.89,14.37,47.14,1008.33,2033.80,2612.28,2580.10,2729.66,600.00,590.37,50.22,0000 0000 0000 0000 000000
2015-09-28 12:16:41,0.11,2.69,0.00,23.45,28.12,30.87,14.44,46.96,1008.33,2033.89,2610.32,2579.22,2728.58,600.32,590.61,50.27,0000 0000 0000 0000 000000
2015-09-28 12:21:42,0.08,2.69,0.00,23.41,28.12,30.90,14.37,46.99,1008.32,2033.88,2608.71,2578.28,2727.68,599.93,590.29,50.32,0000 0000 0000 0000 000000
2015-09-28 12:26:43,0.06,2.70,0.00,23.47,28.12,30.86,14.36,46.92,1008.32,2033.80,2607.35,2577.57,2726.77,599.97,590.15,50.37,0000 0000 0000 0000 000000
2015-09-28 12:31:44,0.06,2.70,0.00,23.42,28.11,30.89,14.46,46.92,1008.32,2033.73,2605.83,2576.89,2725.94,600.08,590.44,50.42,0000 0000 0000 0000 000000
2015-09-28 12:36:45,0.06,2.70,0.00,23.49,28.12,30.88,14.37,46.86,1008.32,2033.75,2604.78,2576.07,2725.11,599.79,590.02,50.47,0000 0000 0000 0000 000000
2015-09-28 12:41:47,0.03,2.71,0.00,23.42,28.12,30.93,14.38,46.89,1008.32,2033.71,2604.02,2575.88,2724.85,599.66,589.94,50.52,0000 0000 0000 0000 000000
2015-09-28 12:46:48,0.05,2.71,0.00,23.34,28.11,30.91,14.40,46.96,1008.32,2033.63,2603.25,2575.09,2724.08,600.07,590.57,50.57,0000 0000 0000 0000 000000
2015-09-28 12:51:49,0.04,2.71,0.00,23.39,28.10,30.93,14.41,47.08,1008.32,2033.81,2602.73,2574.98,2723.87,599.86,590.27,50.62,0000 0000 0000 0000 000000
2015-09-28 12:56:50,0.03,2.71,0.00,23.29,28.10,30.91,14.35,47.07,1008.30,2033.66,2601.95,2574.28,2723.10,599.87,590.35,50.67,0000 0000 0000 0000 000000